Overview Statistics Trail Chart Weather Telemetry Raw packets
 

This is the latest recevied weather packets stored in our database for station/object HB9DDE-10. If no packets are shown the sender has not sent any weather packets the latest 10 day(s).

<< 106 107 108 109 110 111 112 >>
Time Temp. Humidity Pressure Rain* Wind** Luminosity Snow
1787770052 25° C 67% 1015 hPa 0 mm - - -
1787769741 25° C 66% 1015 hPa 0 mm - - -
1787769453 25.56° C 64% 1015.1 hPa 0 mm - - -
1787769144 25.56° C 65% 1015.1 hPa 0 mm - - -
1787768854 26.11° C 64% 1015.1 hPa 0 mm - - -
1787768544 26.67° C 63% 1015.1 hPa 0 mm - - -
1787768255 27.22° C 62% 1015.1 hPa 0 mm - - -
1787767950 28.33° C 58% 1015.1 hPa 0 mm - - -
1787767659 29.44° C 55% 1015.1 hPa 0 mm - - -
1787767350 30° C 54% 1015.1 hPa 0 mm - - -
1787767041 31.11° C 53% 1015.1 hPa 0 mm - - -
1787766755 31.11° C 52% 1015.2 hPa 0 mm - - -
1787766445 31.11° C 53% 1015.3 hPa 0 mm - - -
1787766157 30.56° C 54% 1015.3 hPa 0 mm - - -
1787765847 31.11° C 53% 1015.3 hPa 0 mm - - -
1787765540 31.11° C 52% 1015.2 hPa 0 mm - - -
1787765251 31.11° C 53% 1015.1 hPa 0 mm - - -
1787764940 30° C 55% 1015 hPa 0 mm - - -
1787764650 29.44° C 55% 1015 hPa 0 mm - - -
1787764341 29.44° C 57% 1015 hPa 0 mm - - -
1787764051 29.44° C 57% 1015 hPa 0 mm - - -
1787763742 28.89° C 58% 1015.1 hPa 0 mm - - -
1787763453 28.33° C 61% 1015.1 hPa 0 mm - - -
1787763146 27.78° C 61% 1015.3 hPa 0 mm - - -
1787762857 27.78° C 61% 1015.2 hPa 0 mm - - -

* Rain latest hour (hover to see other rain measurements)
** Current wind speed in m/s (hover to see current wind gust speed)